Arcata, CA

3:06 AM PDT on August 29, 2016 (GMT -0700)
Arcata

Weather History for KACV - May, 2013

Change the Weather History Date:

Friday, May 31, 2013

  Actual Average Record
Temperature  
Mean Temperature 52 °F -  
Max Temperature 61 °F 59 °F 73 °F (1997)
Min Temperature 44 °F 45 °F 37 °F (2000)
Degree Days  
Heating Degree Days 13    
Growing Degree Days 2 (Base 50)    
Moisture  
Dew Point 47 °F    
Average Humidity 84    
Maximum Humidity 97    
Minimum Humidity 67    
Precipitation  
Precipitation 0.00 in - - ()
Sea Level Pressure  
Sea Level Pressure 30.22 in    
Wind  
Wind Speed 5 mph (NNW)    
Max Wind Speed 24 mph    
Max Gust Speed 36 mph    
Visibility 10 miles    
Events      
Averages and records for this station are not official NWS values.
T = Trace of Precipitation, MM = Missing Value Source: NWS Daily Summary

Daily Weather History Graph

Daily Weather History Graph

Search for Another Location

Airport or City:

Trip Planner

Search our weather history database for the weather conditions in past years. The results will help you decide how hot, cold, wet, or windy it might be!

Date:

Astronomy

May. 31, 2013 Rise Set
Actual Time 5:46 AM PDT 8:41 PM PDT
Civil Twilight 5:14 AM PDT 9:14 PM PDT
Nautical Twilight 4:32 AM PDT 9:56 PM PDT
Astronomical Twilight 3:44 AM PDT 10:44 PM PDT
Moon 1:17 AM PDT (5/31) 1:10 PM PDT (5/31)
Length of Visible Light 16h 00m
Length of Day
14h 54m
Waning Gibbous, 50% of the Moon is Illuminated
May 31
Waning Gibbous
May 31
Last Quarter
Jun 8
New
Jun 16
First Quarter
Jun 23
Full

Hourly Weather History & Observations

Time (PDT) Temp. Windchill Dew Point Humidity Pressure Visibility Wind Dir Wind Speed Gust Speed Precip Events Conditions
12:53 AM 51.1 °F - 46.9 °F 86% 30.22 in 10.0 mi Calm Calm - N/A   Overcast
1:53 AM 48.9 °F - 46.9 °F 93% 30.22 in 10.0 mi SE 3.5 mph - N/A   Overcast
2:11 AM 48.2 °F - 46.4 °F 93% 30.21 in 10.0 mi Calm Calm - N/A   Overcast
2:53 AM 48.0 °F - 45.0 °F 89% 30.22 in 10.0 mi ESE 3.5 mph - N/A   Overcast
3:53 AM 46.0 °F 44.8 °F 44.1 °F 93% 30.22 in 10.0 mi East 3.5 mph - N/A   Scattered Clouds
4:53 AM 44.1 °F - 43.0 °F 96% 30.22 in 10.0 mi Calm Calm - N/A   Clear
5:20 AM 44.6 °F - 42.8 °F 93% 30.21 in 10.0 mi Calm Calm - N/A   Mostly Cloudy
5:53 AM 46.9 °F - 45.0 °F 93% 30.23 in 10.0 mi Calm Calm - N/A   Overcast
6:44 AM 46.4 °F - 44.6 °F 93% 30.22 in 10.0 mi Calm Calm - N/A   Scattered Clouds
6:53 AM 46.9 °F - 46.0 °F 97% 30.24 in 10.0 mi Calm Calm - N/A   Partly Cloudy
7:17 AM 50.0 °F - 46.4 °F 87% 30.22 in 10.0 mi Calm Calm - N/A   Mostly Cloudy
7:46 AM 50.0 °F - 46.4 °F 87% 30.22 in 10.0 mi ESE 5.8 mph - N/A   Scattered Clouds
7:53 AM 51.1 °F - 46.9 °F 86% 30.24 in 10.0 mi ESE 4.6 mph - N/A   Partly Cloudy
8:53 AM 54.0 °F - 48.0 °F 80% 30.24 in 9.0 mi NW 5.8 mph - N/A   Scattered Clouds
9:53 AM 54.0 °F - 48.9 °F 83% 30.24 in 10.0 mi NW 5.8 mph - N/A   Clear
10:53 AM 55.9 °F - 50.0 °F 80% 30.23 in 10.0 mi NNW 10.4 mph 17.3 mph N/A   Clear
11:53 AM 57.0 °F - 50.0 °F 77% 30.21 in 10.0 mi NNW 19.6 mph 24.2 mph N/A   Clear
12:53 PM 57.0 °F - 50.0 °F 77% 30.21 in 10.0 mi NNW 23.0 mph 28.8 mph N/A   Clear
1:53 PM 59.0 °F - 51.1 °F 75% 30.21 in 10.0 mi NNW 24.2 mph - N/A   Clear
2:53 PM 59.0 °F - 51.1 °F 75% 30.22 in 10.0 mi NNW 20.7 mph - N/A   Clear
3:53 PM 57.9 °F - 50.0 °F 75% 30.21 in 10.0 mi NNW 20.7 mph 26.5 mph N/A   Clear
4:53 PM 60.1 °F - 50.0 °F 69% 30.21 in 10.0 mi NNW 16.1 mph - N/A   Clear
5:53 PM 57.9 °F - 48.0 °F 70% 30.21 in 10.0 mi NNW 18.4 mph 24.2 mph N/A   Clear
6:53 PM 57.0 °F - 46.0 °F 67% 30.22 in 10.0 mi NNW 18.4 mph - N/A   Clear
7:53 PM 55.0 °F - 46.0 °F 72% 30.23 in 10.0 mi NNW 13.8 mph 21.9 mph N/A   Clear
8:53 PM 52.0 °F - 45.0 °F 77% 30.24 in 10.0 mi NW 9.2 mph 35.7 mph N/A   Clear
9:53 PM 50.0 °F - 45.0 °F 83% 30.25 in 10.0 mi North 8.1 mph - N/A   Clear
10:53 PM 48.0 °F - 45.0 °F 89% 30.25 in 10.0 mi Calm Calm - N/A   Clear
11:53 PM 46.9 °F - 44.1 °F 90% 30.24 in 10.0 mi Calm Calm - N/A   Clear